Wind_Speed
41 40 42 42 42 40 38 37 36 36 36 35 36 36 35 35 35 35 34 33 33 33 33 33 33 31 31 30 30 29 27 26 25 24 24 23 22 22 21 20 18 17 15 14 13 13 12 11 10 10 11 12 12 11 10 10 11 12 12 13 12 11 10 11 11 10 9 6 6 8 10 9 6 5 6 6 5 5 5 2 1 2 4 5 6
34 37 41 41 42 41 40 39 37 37 36 36 36 35 36 36 36 36 35 35 35 35 34 34 34 32 31 31 30 29 28 27 26 25 24 24 24 23 23 21 19 18 16 15 14 13 13 12 11 10 11 11 12 11 10 11 12 12 13 13 12 11 11 11 10 7 5 3 6 8 9 9 7 5 4 3 5 6 5 3 1 1 2 5 7
34 38 42 42 43 43 42 41 39 38 36 36 35 35 35 36 36 36 36 36 36 36 36 35 34 32 31 30 29 29 28 27 26 25 24 24 24 24 23 22 20 19 17 16 15 14 13 12 11 11 11 12 12 11 11 11 12 12 13 12 12 11 11 11 8 6 4 5 7 7 8 8 8 7 4 4 5 6 5 4 2 1 1 4 6
38 40 43 44 44 45 44 44 41 39 37 36 36 35 36 36 36 37 37 37 36 36 36 35 34 32 31 31 29 29 28 28 27 26 26 26 25 24 23 22 21 20 18 17 16 15 14 12 12 12 12 13 12 12 12 12 12 12 12 12 12 12 11 10 8 6 5 6 7 7 7 7 6 6 6 5 5 5 5 5 3 2 0 3 5
42 42 44 46 47 47 47 45 43 41 40 38 37 36 36 36 36 37 37 38 37 36 35 35 34 33 33 33 32 31 31 30 30 30 29 28 27 25 23 22 21 20 19 18 17 15 14 13 12 12 13 13 13 13 13 13 13 13 13 12 11 12 11 9 9 8 6 6 7 6 5 5 5 6 6 6 6 5 6 6 5 3 1 2 4
42 43 44 46 49 49 48 47 45 44 42 39 38 37 37 36 36 36 37 37 37 36 35 35 35 35 35 36 36 35 35 34 34 32 31 30 29 26 23 22 22 21 20 19 17 16 15 14 13 13 13 13 13 13 14 14 14 13 13 12 12 12 11 10 10 9 8 8 8 8 6 5 5 6 7 6 7 7 8 8 6 5 3 3 4
41 41 42 44 47 49 50 49 47 45 42 40 39 39 38 37 37 36 36 36 36 36 36 36 36 36 37 37 37 37 37 36 34 32 30 29 28 26 24 23 22 21 20 20 19 18 17 16 15 14 14 13 13 14 15 15 14 13 13 13 12 12 12 12 11 10 10 10 10 10 9 7 5 6 7 7 7 9 10 10 8 7 5 4 4
43 43 43 45 47 49 51 51 48 45 42 42 41 40 40 39 39 38 37 36 36 36 36 37 37 38 38 38 38 38 37 35 33 32 31 29 28 27 25 24 23 22 21 21 20 19 18 17 16 15 15 14 14 15 16 15 14 14 14 13 13 13 13 12 11 11 12 11 11 11 11 10 9 8 7 8 8 8 11 12 11 9 8 6 6
45 46 46 47 49 51 52 52 49 46 44 43 41 40 40 41 40 40 39 38 38 37 36 37 37 38 39 39 39 39 37 35 33 33 31 30 29 28 27 26 24 23 22 22 21 20 19 18 18 17 16 15 15 15 16 16 15 15 15 14 13 13 13 13 12 12 12 11 11 11 12 11 11 10 9 8 9 9 10 12 12 11 10 9 8
45 47 48 49 50 52 54 52 51 49 48 45 42 41 41 41 42 42 41 41 40 39 38 37 37 37 38 40 40 40 39 37 35 34 33 32 30 29 28 28 26 24 23 23 22 21 20 20 20 19 18 17 16 15 15 16 16 15 15 14 13 13 14 13 12 12 12 12 12 12 11 11 11 12 11 9 10 10 10 11 12 12 11 9 8
45 46 48 49 50 51 52 53 53 52 51 50 47 46 45 44 44 44 43 43 43 42 40 39 38 37 38 38 39 40 40 39 38 36 35 33 31 30 28 28 27 26 24 24 23 22 22 22 21 21 19 18 17 16 15 15 15 16 15 14 14 14 14 14 13 13 13 13 14 13 11 10 10 11 11 11 10 11 11 11 11 12 11 10 9
45 46 47 48 49 49 50 51 52 51 51 52 51 50 49 48 47 46 46 46 45 44 42 41 40 39 38 37 38 38 39 39 39 37 35 34 32 30 29 28 28 27 26 26 25 24 23 23 23 22 21 20 19 17 15 15 16 16 15 15 15 15 15 14 14 13 13 13 13 13 12 10 10 10 11 11 11 11 11 11 11 11 11 10 10
46 47 48 49 50 51 50 52 53 51 51 52 52 52 51 50 50 49 49 48 48 47 45 44 42 41 39 38 38 38 38 38 37 36 35 33 32 31 30 29 29 29 28 28 27 25 25 24 24 23 22 21 19 17 15 15 16 16 15 15 15 15 15 15 13 12 12 12 12 13 13 11 10 10 12 12 12 12 11 11 10 10 10 9 9
48 49 49 50 53 54 53 54 55 54 54 54 54 53 53 52 52 51 50 49 49 49 48 47 45 43 41 39 38 38 38 38 37 36 35 33 31 31 31 30 29 29 28 27 26 25 25 25 24 23 22 20 19 17 17 17 17 16 16 15 15 15 16 15 13 11 11 12 12 14 14 12 11 12 13 14 14 13 12 11 10 9 9 9 9
49 49 50 52 55 55 54 55 56 56 56 55 55 54 54 54 53 53 52 51 51 51 50 49 48 46 43 42 40 39 38 38 37 37 35 33 32 31 31 30 29 28 27 27 26 26 25 24 24 23 21 20 19 18 18 18 18 17 16 16 16 16 16 14 12 12 12 12 13 14 14 14 14 13 14 14 15 14 12 11 10 9 9 10 10
47 48 50 53 55 54 54 55 56 57 57 56 56 56 56 55 54 54 53 52 52 52 51 50 49 48 46 45 43 41 40 39 38 38 37 35 33 32 31 30 29 28 27 27 27 26 26 25 24 23 21 21 20 19 20 19 18 18 17 17 17 16 15 13 12 12 12 12 13 14 15 15 15 16 15 14 15 15 14 13 12 11 11 11 12
47 50 53 54 54 54 54 55 56 57 57 57 57 57 57 56 55 55 54 53 53 53 52 51 50 49 48 47 45 44 42 41 39 38 37 36 35 33 32 31 30 29 28 28 27 27 27 25 25 23 22 21 20 21 21 20 19 19 18 17 17 17 15 13 12 12 12 12 13 14 15 16 16 17 16 15 15 15 15 15 14 13 12 12 13
47 50 53 53 53 55 56 57 58 58 59 59 59 58 57 57 56 55 55 54 54 53 53 52 51 51 49 48 47 46 44 42 40 38 37 36 35 34 34 33 32 30 29 28 28 28 27 26 26 24 23 22 21 22 21 20 20 20 19 18 18 17 16 14 13 13 12 13 14 14 15 16 17 18 17 16 16 16 16 16 15 14 13 14 14
43 46 49 51 53 56 57 57 58 58 58 59 59 58 57 57 57 56 55 54 53 52 52 52 52 51 51 49 48 47 45 44 42 41 39 38 36 35 34 34 33 32 31 31 29 29 28 27 26 25 24 23 23 23 22 21 22 21 20 20 19 19 17 16 15 14 13 14 15 15 16 16 17 18 18 18 18 18 18 17 17 16 15 15 15
43 47 50 53 55 57 58 59 59 59 59 58 57 56 56 57 57 56 56 54 53 53 53 53 52 52 51 50 49 48 47 45 44 43 42 40 38 36 35 34 33 33 33 33 32 30 29 28 27 26 25 25 24 24 24 23 23 23 22 22 22 20 19 18 17 17 16 16 16 16 17 17 17 18 19 20 20 19 19 18 18 17 16 16 16
45 48 51 54 56 56 57 59 59 58 58 57 55 55 55 56 56 57 56 55 55 55 54 54 53 52 52 51 51 49 48 46 45 44 44 42 39 38 36 34 33 33 33 34 33 32 31 29 28 27 26 25 25 25 25 24 24 25 24 24 23 22 21 19 19 19 18 18 18 18 18 18 18 19 19 20 21 20 20 19 18 17 16 16 17
46 48 51 52 54 55 55 56 57 56 55 54 53 53 54 55 56 57 57 57 57 56 55 55 54 53 52 51 50 50 48 47 46 46 45 44 41 40 38 36 35 34 33 34 34 33 33 31 29 28 27 26 26 26 27 26 26 26 26 25 25 24 23 21 21 20 20 19 19 19 19 19 19 19 19 20 21 21 21 20 19 18 16 16 16
43 46 48 48 50 52 52 53 55 55 55 54 53 53 54 55 56 56 57 57 58 57 56 55 54 54 53 51 50 50 49 48 48 47 46 45 43 40 39 38 36 35 33 33 34 34 34 33 31 30 29 28 27 28 28 29 28 27 27 26 26 26 25 23 22 21 21 21 21 21 20 20 20 20 20 20 21 22 22 21 20 18 17 16 15
41 42 43 43 43 45 47 50 52 54 55 54 53 54 54 54 55 55 57 58 58 57 56 56 56 55 53 52 52 51 50 49 49 47 46 45 43 41 40 39 38 36 35 34 34 34 34 34 33 32 31 29 29 29 29 30 30 29 28 28 27 27 26 24 23 22 21 22 22 23 22 21 21 21 21 21 22 23 22 22 21 20 19 17 16
39 39 39 39 39 41 46 49 52 53 54 54 53 54 54 54 54 55 57 57 57 56 56 56 56 55 54 54 53 52 51 51 49 48 46 44 42 41 40 39 39 38 36 35 35 35 35 35 35 34 33 31 30 30 30 31 31 30 29 29 28 28 28 26 24 23 22 22 23 24 23 23 22 22 22 22 22 23 23 22 22 21 20 20 18
37 38 38 39 39 42 46 49 51 52 53 54 54 54 53 54 54 55 56 56 56 56 56 56 56 55 55 55 54 53 52 51 50 48 46 44 42 41 40 40 39 38 37 37 36 36 37 36 36 35 34 32 31 31 31 31 31 30 30 29 29 29 29 27 26 24 24 23 23 24 24 24 25 24 23 23 23 23 23 22 22 22 21 20 18
33 35 37 37 38 41 45 48 49 51 52 53 54 54 54 54 54 55 55 55 55 55 55 55 55 55 55 56 55 54 53 51 49 47 45 43 42 41 41 40 39 38 38 38 38 38 38 37 37 36 35 34 32 32 31 31 31 31 30 29 29 30 29 28 27 26 25 25 24 24 24 25 26 26 25 24 23 22 22 21 21 21 20 19 18
28 31 34 36 38 41 44 47 48 49 50 52 53 54 54 54 55 54 54 54 54 54 55 55 55 55 56 56 55 54 52 51 49 47 46 44 42 42 41 40 39 38 38 39 39 39 38 39 39 38 37 35 34 33 32 31 31 31 31 30 30 31 30 29 29 28 27 27 26 25 25 25 26 26 26 25 24 23 22 21 20 20 19 19 18
26 29 32 35 38 41 43 46 48 49 50 50 51 52 53 53 54 53 53 54 54 54 55 55 56 56 56 55 54 53 52 51 49 48 47 45 43 42 41 40 39 39 39 39 40 40 39 40 40 40 39 37 35 34 33 32 32 32 32 32 31 31 31 30 30 30 29 28 27 26 26 25 25 25 26 26 25 24 23 22 21 20 20 20 19
27 28 31 34 36 39 43 45 47 48 49 50 51 52 52 53 53 53 54 54 53 54 54 55 56 57 56 54 53 53 52 51 50 49 47 46 44 43 42 41 40 40 39 40 40 41 41 42 42 41 41 39 37 36 34 33 33 33 32 32 31 31 31 31 31 31 30 29 27 27 26 26 25 25 25 27 27 26 25 23 22 21 21 20 18
26 26 28 32 35 38 41 44 46 47 48 50 51 51 52 52 52 53 54 54 53 54 54 55 56 56 55 54 53 53 53 52 50 48 47 46 45 44 43 41 40 41 41 41 41 42 43 43 43 43 42 41 39 37 35 34 33 33 33 32 32 31 31 32 32 32 31 29 28 27 27 26 26 24 25 27 28 27 26 24 23 22 21 19 18
21 23 25 29 33 36 39 42 45 47 48 49 50 51 51 51 52 53 53 53 53 54 55 55 55 55 54 54 53 53 53 52 51 49 47 46 46 45 44 42 42 42 42 42 43 44 44 44 44 44 43 42 40 38 36 35 34 33 33 32 32 31 31 32 32 32 31 29 28 28 28 29 28 25 24 27 29 29 27 25 24 23 21 20 19
20 21 22 25 28 33 37 40 43 46 48 48 49 50 50 50 51 52 52 52 52 53 54 55 54 54 54 54 54 53 53 53 52 50 48 47 47 46 45 44 43 43 43 44 44 45 45 46 46 45 44 42 41 38 37 36 35 33 32 32 31 31 30 30 31 31 30 28 28 31 31 29 28 26 24 26 29 28 27 25 24 23 22 21 19
20 20 21 23 25 28 32 37 41 44 47 47 48 48 48 47 48 50 50 51 52 53 54 54 54 54 54 54 54 53 53 53 52 50 49 49 48 47 46 44 44 44 44 45 45 45 46 47 47 46 44 43 41 39 38 37 35 33 31 31 31 30 29 29 29 29 28 27 29 32 31 27 27 26 24 25 26 26 27 26 24 24 23 21 19
20 20 21 22 22 24 28 33 37 41 44 45 45 46 46 46 48 49 50 51 52 52 53 54 54 54 54 54 54 54 53 52 51 51 50 50 49 48 47 46 45 45 46 46 46 46 46 47 47 47 45 44 41 40 39 38 36 33 30 30 30 29 28 28 27 27 27 27 29 31 30 28 27 25 24 25 25 24 25 25 24 24 23 21 19
16 19 19 18 19 21 23 26 31 36 40 41 42 43 45 46 47 49 50 50 51 52 52 53 53 53 53 53 54 53 53 52 51 51 50 50 50 49 48 47 47 46 47 47 47 47 47 48 47 47 46 45 43 42 40 38 35 32 30 30 30 29 28 28 26 25 26 27 29 30 30 29 27 24 24 24 22 21 22 23 23 23 22 21 20
7 12 14 14 14 16 18 21 24 29 34 37 38 40 43 45 46 47 48 49 50 51 52 51 51 52 52 52 53 52 51 50 50 50 51 50 50 49 49 48 48 48 48 48 48 48 48 48 47 47 47 46 45 43 41 38 35 33 31 30 30 29 28 27 24 24 26 28 28 29 29 29 27 25 23 22 21 19 20 21 21 21 21 20 20
3 2 7 9 9 10 12 15 19 24 28 32 35 37 40 43 44 45 46 47 49 50 50 49 50 51 51 51 51 50 49 49 50 51 51 50 49 49 49 49 49 49 49 48 48 48 48 48 48 48 47 46 46 45 42 38 36 33 31 30 28 28 27 26 24 25 27 28 28 28 29 28 27 25 22 21 21 19 19 19 20 20 20 19 19
10 8 3 0 3 5 6 7 11 15 19 24 28 33 37 41 43 43 45 46 48 49 48 47 48 49 49 49 50 50 49 50 50 51 51 50 48 47 47 48 48 49 49 48 49 49 49 49 49 48 46 45 46 46 43 40 37 33 30 28 27 27 27 25 24 26 27 27 28 28 27 26 25 23 22 22 21 20 19 19 19 19 19 18 18
13 14 12 10 6 3 2 4 5 6 8 13 19 26 32 37 40 41 44 45 46 46 45 45 46 47 48 49 49 50 50 50 50 50 50 49 48 47 46 47 48 49 49 49 49 50 50 49 49 47 46 45 46 47 45 42 37 33 29 27 27 28 26 24 24 26 27 28 28 27 27 26 25 24 21 21 21 20 18 18 17 17 17 17 17
12 13 14 14 13 11 8 4 1 3 5 8 13 20 27 32 36 40 43 43 43 43 44 44 46 46 47 48 49 49 49 50 50 50 49 48 47 47 47 48 48 49 49 49 50 50 50 49 48 47 46 46 47 47 46 42 37 32 29 28 28 28 24 23 25 27 27 27 27 27 27 26 26 23 19 18 20 19 17 16 15 14 14 14 16
10 10 11 13 14 14 13 12 9 4 2 6 10 15 20 26 32 36 38 39 40 42 43 43 44 45 46 48 49 49 48 49 50 50 50 48 47 47 48 48 48 49 49 49 50 49 49 49 48 47 47 47 47 47 45 40 36 31 28 28 28 25 22 23 26 26 26 25 25 25 25 24 23 20 17 17 18 18 17 16 14 13 13 15 16
8 8 9 11 11 12 12 12 12 10 4 3 8 12 16 22 26 27 28 32 35 38 39 41 43 45 46 47 48 48 48 49 50 51 51 50 48 48 49 49 50 50 50 50 50 49 48 48 48 48 48 47 47 46 43 38 34 30 28 28 26 24 23 25 26 25 24 24 24 23 22 21 20 17 15 17 18 18 17 15 13 14 15 16 16
9 8 9 9 9 9 10 9 9 9 7 3 4 7 11 17 20 21 24 28 30 33 36 39 41 43 44 46 47 47 48 49 51 51 51 51 50 50 50 50 51 52 52 52 51 50 49 48 48 48 48 48 47 45 41 37 33 30 29 27 26 25 25 25 24 23 23 23 22 21 20 18 16 16 16 17 18 18 16 14 14 15 16 16 16
10 9 8 8 7 7 7 7 6 5 5 3 3 4 7 10 13 15 20 24 27 30 34 37 39 41 42 43 45 46 47 49 51 51 51 51 51 51 51 51 52 51 52 52 52 52 51 50 48 49 49 48 46 43 40 36 32 31 31 29 27 27 27 25 24 24 22 21 19 19 18 17 16 18 19 18 18 17 15 14 15 17 17 16 15
11 9 8 7 6 5 4 3 3 3 2 1 1 3 5 7 9 11 13 16 21 26 30 33 36 39 40 42 44 46 47 48 51 52 52 52 52 51 52 52 52 51 52 52 52 52 52 51 50 50 50 48 45 43 39 35 32 33 34 32 30 29 28 27 26 25 22 20 20 19 19 19 19 19 19 19 18 17 16 16 17 17 17 16 15
13 11 9 7 6 6 5 4 4 4 4 4 5 5 6 8 9 10 11 13 16 20 24 28 31 35 38 41 43 45 47 48 50 51 51 51 52 52 52 53 53 53 54 53 53 52 52 52 52 51 50 47 45 43 40 36 35 36 36 36 34 32 31 29 28 27 25 23 22 22 22 20 20 19 18 18 18 18 17 18 18 17 16 15 15
13 11 10 8 7 7 7 7 7 8 9 9 10 10 10 11 11 12 13 14 15 17 20 23 26 30 34 37 40 43 46 48 50 51 52 53 53 54 55 56 56 56 56 56 56 56 56 56 55 54 51 49 47 45 41 38 38 39 40 40 38 35 34 33 31 30 28 26 25 24 24 22 21 21 21 20 20 20 19 19 18 17 16 15 16
13 12 11 10 9 8 7 6 7 8 10 11 13 14 15 15 15 16 15 16 16 17 19 21 24 28 32 35 38 41 44 46 49 51 53 54 55 56 58 59 59 59 59 59 57 57 58 59 58 55 54 52 49 45 41 38 39 41 42 40 38 36 35 34 33 31 30 29 28 27 26 25 24 24 24 23 22 22 21 20 18 17 17 17 18
13 12 12 12 11 10 9 7 6 6 7 8 10 12 14 15 17 17 17 17 18 18 19 20 22 26 30 33 36 39 42 45 47 50 52 54 55 56 57 58 59 60 61 61 60 56 56 58 58 56 55 51 44 40 39 39 38 39 39 37 34 33 33 34 33 32 30 31 31 29 28 27 27 26 25 24 24 23 22 21 19 19 18 18 17
13 13 13 13 13 12 11 10 8 7 6 6 6 7 8 10 11 12 14 15 17 17 18 19 20 23 27 30 32 35 38 41 44 47 50 52 54 56 57 58 59 59 60 61 60 57 56 58 58 58 55 47 38 35 38 38 36 38 39 37 32 30 31 32 32 32 32 32 32 31 30 28 27 26 25 24 24 23 22 21 19 19 18 17 16
Wind_Direction
209 207 208 209 209 210 209 209 210 210 211 212 213 213 213 214 216 217 216 215 214 213 214 214 215 215 215 216 217 217 217 217 218 218 218 219 220 223 225 225 227 228 230 234 239 244 245 246 249 255 260 263 266 270 271 270 271 277 285 290 289 287 287 289 287 282 285 274 231 215 220 230 238 252 268 264 236 218 227 226 64 11 13 23 29
208 208 209 209 210 211 211 211 211 212 212 213 214 214 215 215 217 218 219 218 216 215 215 216 217 216 217 218 218 218 218 218 219 219 220 222 223 225 226 226 229 231 233 235 239 243 243 244 246 251 259 262 263 263 263 265 272 281 288 290 287 284 288 292 286 281 283 211 189 196 208 225 238 253 274 242 204 209 226 231 236 325 18 45 46
208 209 209 209 210 211 212 213 214 213 212 213 215 216 218 218 218 219 220 221 220 218 217 219 219 219 220 221 221 221 220 221 222 223 224 225 226 227 227 227 229 231 233 236 238 240 241 243 246 250 256 259 261 260 260 266 275 284 289 286 281 280 286 287 274 264 254 203 196 205 216 231 243 246 244 196 191 210 218 214 216 256 25 65 59
207 209 209 210 210 210 212 213 215 215 214 215 215 216 218 219 219 219 220 222 222 221 220 221 221 222 223 224 225 226 225 225 225 226 225 227 228 228 228 228 229 231 232 235 237 238 240 243 246 249 252 256 259 259 260 265 274 282 284 279 274 279 286 277 254 241 234 214 209 219 230 239 242 234 217 196 200 207 198 194 206 222 139 79 72
207 208 209 209 209 211 212 214 215 216 216 215 214 215 216 217 218 219 220 222 223 223 223 223 222 223 224 225 226 227 227 227 227 227 226 226 228 227 227 228 230 231 232 234 236 237 240 243 246 250 253 255 258 259 260 263 269 276 275 271 269 278 281 261 239 233 230 221 218 223 231 238 240 224 203 200 212 211 192 192 211 217 180 118 96
210 210 210 209 210 211 213 214 215 217 217 216 215 214 214 216 217 218 220 222 223 223 223 223 223 223 224 224 224 225 226 226 227 228 227 228 228 227 227 228 231 232 232 233 235 237 240 241 245 250 254 257 260 260 259 261 266 272 272 268 269 277 269 243 232 233 233 229 226 227 232 241 245 228 214 214 217 213 201 198 212 216 195 161 135
212 213 212 212 212 211 212 213 215 216 216 215 215 216 217 219 219 220 221 222 223 223 222 223 224 224 225 225 226 227 228 229 230 232 233 233 233 233 231 230 232 232 233 233 234 236 238 239 243 248 254 257 260 259 257 260 264 269 269 266 270 273 257 236 230 234 237 236 234 235 240 246 248 238 234 235 226 215 208 207 214 217 210 193 168
212 213 213 214 214 213 214 214 214 215 214 214 216 217 219 221 223 223 224 225 225 224 223 223 224 225 226 226 227 229 232 233 235 236 237 238 238 238 236 234 233 233 234 234 234 235 235 236 240 245 250 254 257 256 255 258 260 263 265 264 269 266 247 232 231 237 241 242 244 246 247 248 248 249 251 248 243 231 215 212 217 219 219 213 196
213 214 214 215 215 216 217 216 215 214 213 213 214 216 219 221 224 225 225 226 227 226 224 224 224 225 227 228 228 230 232 234 236 238 239 240 240 240 238 236 235 234 234 235 235 235 235 236 239 244 248 251 256 257 255 255 256 259 262 264 269 262 242 231 230 237 242 244 251 254 253 252 250 251 255 246 243 242 229 221 223 225 227 227 214
215 216 217 218 218 219 219 218 218 217 215 214 214 215 218 221 223 225 226 226 227 227 226 225 225 225 226 228 230 231 231 232 234 237 238 239 240 239 238 237 236 235 234 236 236 236 236 237 240 244 247 250 255 257 255 254 255 258 260 263 265 254 240 234 234 237 240 241 250 257 256 256 254 254 258 253 244 241 241 238 235 234 240 247 235
216 217 218 220 221 222 221 220 220 220 218 218 217 218 219 221 223 225 226 227 228 228 228 228 226 226 226 228 230 231 232 232 233 234 235 237 238 238 238 238 238 237 236 238 239 239 239 239 241 244 246 249 251 254 253 253 254 256 257 260 259 248 239 238 239 238 238 239 245 252 256 257 257 258 259 262 257 246 244 249 248 246 252 258 249
216 216 218 220 222 223 222 222 222 221 220 219 220 220 221 222 223 225 227 227 228 229 229 229 228 228 228 228 229 231 232 233 233 234 234 234 236 237 238 238 239 240 239 240 241 241 240 240 241 242 243 245 247 250 251 250 251 251 252 256 255 247 238 236 237 236 236 238 243 250 254 255 256 257 256 258 259 253 249 252 253 253 257 257 250
216 216 217 218 220 222 221 222 223 222 221 222 221 221 222 223 224 226 227 227 227 228 229 230 229 230 230 230 230 230 231 233 234 235 235 235 235 236 237 239 240 240 240 240 240 240 240 239 240 241 242 244 246 247 247 246 246 247 248 250 249 244 239 236 236 235 234 237 244 251 254 253 253 254 255 254 255 254 253 254 254 253 255 252 244
216 216 217 217 219 221 221 222 223 222 223 224 223 223 223 224 225 226 228 228 228 228 229 229 230 230 231 231 232 232 232 233 234 235 235 236 236 236 237 238 240 242 242 242 242 240 238 237 238 241 242 245 246 245 244 242 242 244 245 245 243 241 237 236 237 235 235 236 242 249 254 254 252 253 255 253 252 253 254 257 258 255 253 248 245
215 216 217 218 220 220 220 221 222 222 223 224 224 224 224 225 226 227 228 229 229 229 229 230 230 230 231 231 232 233 234 235 236 236 236 236 236 236 237 237 239 242 244 245 245 242 237 235 237 240 243 245 245 243 241 239 239 241 241 239 237 235 233 233 235 236 237 240 244 250 255 254 252 255 258 254 250 250 251 256 260 259 257 255 257
214 215 217 220 220 220 220 221 222 222 222 223 224 224 225 226 227 228 229 230 230 230 230 231 232 231 231 231 232 232 234 236 237 237 237 236 236 236 236 236 237 240 243 245 246 243 238 236 238 241 244 245 244 242 239 236 237 238 237 234 230 228 228 230 233 234 237 242 246 249 253 254 254 257 260 256 250 249 249 251 256 259 262 267 271
214 215 218 220 220 220 221 221 222 222 222 222 224 225 226 226 227 228 229 230 231 231 232 232 233 232 232 233 233 232 233 235 237 238 238 238 238 237 237 236 236 237 240 242 244 243 240 238 240 243 246 245 242 240 237 234 236 236 234 231 228 225 226 230 233 234 236 240 243 245 249 253 255 256 258 257 251 249 248 250 255 260 265 272 279
216 217 218 219 219 220 221 221 222 223 223 224 225 227 227 227 227 228 229 229 231 232 233 233 233 233 234 234 234 234 234 235 237 238 239 239 239 239 238 236 235 235 237 239 241 242 241 240 241 243 246 246 242 238 235 233 234 235 232 230 228 225 225 229 233 233 234 236 239 242 246 251 254 255 256 255 252 250 249 250 255 260 265 271 277
217 217 219 219 220 220 221 221 223 223 224 226 226 225 224 225 227 228 230 232 233 233 233 234 234 234 235 235 236 236 236 236 236 237 238 239 239 240 240 238 236 235 235 236 238 240 240 240 241 242 244 245 241 237 234 232 233 234 232 230 228 226 224 227 231 233 234 236 238 240 244 250 254 256 255 253 252 251 251 252 254 259 264 269 273
217 218 219 220 220 220 220 221 222 223 224 225 225 223 222 224 225 226 229 231 231 233 234 234 235 235 235 236 236 236 237 237 237 237 238 239 240 240 241 241 238 236 235 235 236 237 239 239 239 240 242 243 240 236 234 233 233 234 233 232 231 229 226 226 229 232 233 235 237 239 243 248 252 255 256 255 254 252 253 254 257 260 263 266 270
219 219 220 221 221 221 221 221 223 223 224 224 223 222 223 223 224 226 227 229 231 232 233 234 235 235 235 235 236 236 237 237 237 238 239 240 241 241 241 242 241 238 235 235 235 235 237 238 238 239 241 241 240 238 236 235 234 235 234 233 234 233 229 227 229 232 233 235 237 237 240 245 249 252 255 256 256 255 256 258 261 263 264 267 271
222 222 222 222 220 220 220 220 221 222 222 222 221 222 222 222 224 225 226 228 231 233 234 234 234 234 235 236 237 237 237 237 237 238 239 240 241 241 242 242 242 240 236 235 235 234 235 236 237 238 239 240 240 238 237 236 234 234 234 233 234 234 230 228 230 232 233 236 238 238 239 243 247 250 253 256 257 258 259 262 265 268 270 273 275
226 225 225 223 221 220 219 219 219 220 221 221 221 221 222 223 224 224 225 228 231 233 234 234 233 234 236 236 237 237 238 237 237 238 239 240 241 242 242 243 243 242 238 235 234 234 234 234 236 237 238 238 239 238 237 236 235 235 234 234 235 234 233 231 232 233 234 236 239 239 239 241 245 248 251 255 257 258 260 263 266 271 275 277 277
231 229 227 225 222 219 218 218 219 219 219 220 220 221 222 222 223 223 225 229 231 231 231 232 232 234 234 235 236 236 237 237 237 237 238 239 240 241 242 243 244 243 240 235 233 232 233 234 235 236 236 237 238 237 235 235 235 235 235 236 237 237 236 235 235 237 236 238 240 240 240 241 245 247 249 253 256 258 260 263 267 271 274 277 280
233 231 228 225 221 219 219 219 219 219 219 218 219 221 221 222 222 223 227 230 230 230 230 230 231 232 232 234 235 235 236 237 237 238 238 239 239 240 241 242 243 244 241 237 233 231 232 233 234 235 236 236 236 236 235 235 235 236 237 238 239 239 238 238 238 240 240 241 241 242 242 243 245 246 248 251 254 257 260 262 265 269 271 274 277
234 232 229 225 221 220 221 221 220 219 219 218 219 220 221 222 223 225 228 229 229 229 229 229 230 230 231 233 234 235 236 237 237 238 238 238 239 239 240 241 242 243 242 238 233 231 231 232 234 235 235 235 235 235 235 235 237 237 238 239 239 239 239 239 240 241 242 243 244 244 244 244 245 246 247 251 254 256 258 260 264 267 268 270 272
237 233 230 225 221 222 223 222 222 221 220 219 220 220 221 222 224 226 227 227 228 228 228 228 229 229 230 232 234 235 236 237 237 238 239 239 239 239 239 240 241 241 241 238 233 230 230 232 234 235 235 234 234 235 235 236 238 238 239 239 239 240 240 239 240 241 242 245 246 247 247 246 246 247 249 253 255 256 257 259 263 266 266 266 269
237 233 230 225 222 224 224 223 222 222 221 221 221 221 221 223 225 226 226 226 227 227 227 228 229 229 230 233 234 235 236 237 237 238 238 238 238 239 239 239 240 240 240 237 233 230 230 231 233 235 235 234 234 235 235 236 237 238 239 239 239 241 241 241 241 241 242 245 247 249 251 251 250 249 250 253 255 256 257 259 261 263 263 264 266
242 234 231 228 227 227 226 224 223 222 222 222 221 221 221 223 225 226 226 227 227 226 227 229 229 230 233 234 234 234 234 235 236 236 237 237 237 238 238 239 239 240 239 237 234 232 230 231 233 234 235 235 234 234 234 235 236 237 238 239 240 241 243 243 243 243 244 245 247 250 253 254 255 253 252 253 256 256 256 258 260 260 261 263 266
254 245 237 233 232 230 228 226 223 221 222 222 222 222 222 223 225 225 227 227 226 225 226 228 230 232 233 233 232 233 233 233 234 235 236 236 236 237 237 238 239 239 239 237 235 233 231 232 233 234 235 235 234 234 233 234 235 237 239 240 241 242 243 245 246 246 246 246 248 251 254 257 259 258 255 253 255 257 256 257 259 260 261 262 263
265 260 249 240 236 232 229 226 223 222 223 223 224 225 225 225 225 225 227 227 225 225 226 228 232 233 232 231 232 231 231 232 233 234 235 235 235 235 236 237 238 239 239 237 235 233 232 232 234 235 236 236 235 234 234 234 235 236 238 240 242 243 244 246 247 248 249 249 250 252 255 258 261 262 260 256 254 255 256 256 258 260 261 260 260
272 268 259 249 241 234 230 228 227 225 224 225 226 226 225 225 226 228 228 225 224 225 227 230 232 231 230 231 231 230 230 231 232 232 233 234 234 235 235 236 236 237 238 237 235 233 232 233 234 235 236 237 236 235 235 236 236 236 238 240 242 244 244 246 247 249 250 251 252 254 257 260 263 265 264 261 257 255 256 256 257 259 260 259 259
271 270 265 258 250 241 235 234 233 229 228 229 228 226 227 230 231 230 226 222 223 226 228 230 231 230 230 230 230 230 230 231 232 231 231 232 233 234 234 235 236 236 237 237 236 234 233 234 235 235 236 237 237 237 237 237 238 238 239 240 242 244 246 247 248 249 251 253 255 256 256 257 259 258 255 257 257 255 255 255 255 256 257 257 256
268 269 270 267 261 250 241 238 237 235 233 231 229 229 231 233 231 227 224 224 226 227 229 230 230 230 230 230 229 230 230 231 231 230 229 230 232 233 234 234 235 236 237 238 237 236 236 235 235 235 236 237 238 238 238 238 239 239 239 241 243 245 246 248 249 250 252 253 255 256 255 252 252 251 248 251 255 255 254 254 253 253 255 255 254
265 266 269 272 271 260 247 240 239 238 234 229 227 230 231 230 227 226 226 227 228 229 229 231 230 230 230 229 229 229 230 230 229 229 229 230 231 232 233 234 235 236 237 238 238 238 237 237 236 236 237 238 239 240 240 240 241 240 239 241 243 244 246 248 249 250 252 253 253 255 256 256 256 254 248 247 251 254 254 252 250 251 253 253 251
264 265 266 270 272 266 255 245 240 239 236 232 230 230 230 229 228 228 228 229 229 229 228 228 229 229 230 230 230 229 228 229 228 227 228 229 231 232 233 233 234 236 238 239 239 239 239 239 238 238 238 238 239 240 241 241 241 241 240 240 242 243 245 246 247 248 250 251 252 253 255 256 258 256 249 243 244 247 249 248 247 249 251 250 250
263 266 266 266 266 261 253 246 240 237 238 237 235 232 230 230 228 227 226 227 227 227 227 228 230 231 232 232 231 228 227 227 228 228 229 230 232 233 233 234 234 235 237 238 239 240 240 240 240 239 239 238 239 241 241 242 242 240 239 239 240 241 243 244 245 246 248 249 250 252 254 256 256 255 248 240 237 240 244 244 244 246 247 246 247
107 259 266 261 257 251 242 238 237 237 238 238 236 233 231 230 229 228 226 226 227 228 229 231 233 234 233 232 230 228 228 229 230 230 231 231 232 233 234 234 235 236 237 238 239 240 240 241 241 241 240 240 240 241 241 241 241 240 239 239 239 240 241 242 242 244 246 248 250 252 255 258 259 255 245 236 234 238 243 243 241 242 242 243 248
89 84 69 277 238 236 224 219 229 236 238 239 237 234 231 230 229 229 228 227 230 232 234 236 238 237 235 233 232 231 232 233 233 233 232 232 232 234 234 235 236 238 238 239 239 239 240 241 242 242 242 242 242 243 242 241 240 239 238 238 238 238 239 238 239 243 245 247 250 251 253 253 253 250 243 236 235 238 239 237 235 236 239 245 251
82 80 74 73 80 107 160 193 216 223 228 236 237 234 232 231 231 230 229 231 235 238 239 241 241 237 235 234 233 233 234 234 234 233 232 232 233 234 235 236 237 238 238 237 238 238 239 241 242 243 243 243 243 243 242 241 240 239 238 236 236 235 235 234 237 241 244 246 249 249 248 246 247 247 244 237 234 233 230 227 227 231 239 244 243
78 76 77 76 74 75 76 78 124 216 220 228 235 235 233 232 231 230 232 237 241 243 243 241 238 235 234 234 234 234 235 235 234 233 232 233 235 236 236 236 236 236 236 236 237 238 239 241 242 243 243 244 243 242 242 241 240 238 237 235 234 233 232 233 237 241 244 246 246 245 245 245 247 248 244 232 225 222 218 219 222 228 235 234 229
81 74 74 75 75 75 72 67 65 64 230 229 234 239 238 235 233 235 240 243 243 242 241 239 237 235 235 235 235 236 237 236 235 233 232 234 235 236 236 235 235 235 235 236 237 238 238 240 241 242 243 242 241 241 241 240 239 237 234 232 233 232 230 232 237 240 241 241 241 242 244 246 247 249 241 224 216 213 211 213 216 221 224 227 229
85 71 65 63 66 70 69 66 67 66 70 213 228 238 242 242 243 248 253 250 247 246 244 242 240 238 237 237 238 238 239 238 236 234 233 234 234 234 234 234 234 233 234 235 235 236 236 237 238 239 240 240 239 240 240 239 236 233 231 230 230 229 229 231 235 237 236 235 236 239 242 243 244 241 228 212 207 207 209 210 212 221 228 233 235
70 60 53 50 55 62 62 63 70 71 75 106 191 218 235 245 252 260 260 256 254 253 250 247 245 243 242 241 240 240 240 239 238 235 233 233 233 231 231 231 231 231 231 231 232 232 233 233 235 237 237 236 236 238 239 237 232 227 223 221 220 222 224 226 229 230 230 230 233 237 238 236 231 219 205 199 202 204 207 211 218 226 234 236 232
58 53 41 33 37 44 47 53 59 64 77 95 138 188 218 237 249 255 254 254 256 255 253 252 251 248 247 246 244 242 242 241 240 237 234 233 232 230 229 229 228 228 228 228 228 228 229 230 233 234 234 234 234 235 236 233 227 223 220 215 211 212 214 216 219 221 222 224 227 229 227 219 210 200 192 192 198 202 206 216 226 231 234 232 228
57 54 40 25 17 9 8 28 30 26 44 64 218 221 227 233 238 244 248 250 253 252 253 254 254 253 252 250 247 245 243 242 241 238 236 235 232 230 230 229 228 228 229 228 227 225 225 227 230 229 229 231 233 234 234 229 222 221 220 213 207 207 208 209 211 211 212 216 217 214 210 203 197 193 191 193 198 204 211 221 229 232 231 229 228
54 50 40 25 7 350 336 328 322 310 301 295 284 277 273 265 260 259 256 253 251 250 251 252 253 255 254 251 250 248 246 243 241 237 235 234 232 231 231 230 229 228 227 226 226 226 225 226 225 224 226 230 231 232 230 223 219 219 214 204 200 202 203 204 204 202 202 206 206 201 198 197 194 191 192 197 202 209 217 224 228 229 230 228 227
53 49 42 31 18 3 345 331 317 303 295 288 282 282 284 283 283 281 275 270 265 258 255 253 252 255 256 255 254 253 250 246 242 238 235 233 232 232 231 231 233 232 228 226 225 225 227 229 226 222 222 223 225 226 222 216 214 211 202 196 194 196 198 200 200 198 198 197 197 195 194 193 192 192 194 199 206 212 218 223 226 227 226 223 221
53 47 40 32 25 18 3 344 326 308 297 291 287 284 282 281 283 285 287 288 285 277 270 262 256 255 257 258 259 258 255 251 246 243 240 239 239 238 235 235 237 237 235 233 230 230 233 232 227 222 221 220 219 219 215 211 211 206 197 194 194 195 197 200 200 198 196 192 190 193 195 194 195 197 200 204 209 214 217 219 220 221 220 221 221
52 47 41 34 26 19 8 354 337 313 295 290 290 289 287 285 284 283 285 288 290 289 286 278 267 260 257 257 257 257 255 252 249 247 245 243 242 241 239 239 240 240 239 238 236 237 238 233 226 224 225 225 223 218 211 206 207 204 197 196 200 200 200 201 200 198 194 191 190 192 196 199 202 204 207 210 212 214 215 214 216 218 220 223 224
57 51 45 38 30 21 11 359 349 337 322 314 309 305 301 299 297 296 293 289 287 286 287 285 280 272 267 263 261 259 256 252 249 247 246 244 242 240 239 239 239 239 239 237 235 235 236 235 232 228 225 223 222 219 212 206 202 197 194 195 199 201 201 202 202 196 191 190 193 195 197 202 205 207 209 211 211 211 211 211 215 220 222 223 225
Height
1495 1499 1501 1503 1505 1507 1510 1512 1515 1517 1519 1522 1523 1525 1527 1530 1532 1533 1536 1538 1540 1542 1544 1545 1546 1548 1549 1551 1553 1555 1558 1559 1561 1562 1564 1565 1567 1569 1570 1572 1573 1574 1575 1576 1577 1578 1578 1579 1580 1580 1580 1581 1581 1581 1582 1582 1582 1582 1582 1582 1582 1582 1582 1582 1582 1582 1582 1583 1583 1584 1585 1586 1586 1587 1588 1588 1589 1589 1589 1590 1590 1590 1590 1590 1590
1496 1499 1500 1502 1504 1506 1509 1510 1512 1514 1516 1519 1521 1523 1525 1527 1529 1531 1534 1536 1537 1539 1541 1543 1544 1546 1547 1549 1552 1554 1556 1558 1559 1561 1563 1564 1566 1568 1569 1571 1572 1573 1574 1575 1576 1577 1577 1578 1579 1579 1580 1580 1581 1581 1581 1581 1581 1582 1581 1581 1582 1582 1582 1582 1582 1582 1582 1583 1583 1584 1585 1586 1586 1587 1587 1588 1588 1589 1589 1590 1590 1590 1590 1590 1590
1493 1495 1497 1499 1501 1504 1506 1508 1509 1512 1514 1516 1518 1521 1523 1525 1527 1529 1531 1533 1535 1537 1539 1540 1543 1545 1547 1549 1551 1553 1555 1557 1558 1560 1562 1563 1565 1566 1568 1569 1570 1572 1573 1574 1574 1575 1576 1577 1578 1578 1579 1580 1580 1581 1581 1581 1581 1581 1581 1581 1581 1582 1582 1582 1582 1582 1582 1583 1584 1584 1585 1586 1586 1586 1587 1587 1588 1589 1589 1590 1590 1591 1591 1591 1591
1488 1491 1493 1496 1498 1500 1502 1504 1506 1509 1511 1513 1515 1518 1520 1522 1524 1526 1528 1530 1532 1535 1537 1539 1542 1545 1547 1549 1551 1553 1554 1556 1557 1559 1560 1562 1563 1565 1566 1567 1568 1570 1571 1572 1573 1574 1575 1576 1577 1577 1578 1579 1579 1580 1580 1580 1581 1581 1581 1581 1581 1581 1582 1582 1582 1582 1582 1583 1584 1584 1585 1585 1586 1586 1587 1587 1588 1588 1589 1590 1591 1591 1591 1592 1592
1484 1486 1489 1491 1494 1495 1497 1500 1503 1505 1508 1509 1511 1514 1516 1518 1520 1523 1525 1528 1530 1532 1535 1538 1541 1544 1546 1548 1549 1551 1552 1553 1554 1555 1557 1559 1561 1563 1564 1566 1567 1568 1569 1571 1572 1573 1574 1575 1576 1576 1577 1578 1579 1579 1580 1580 1580 1580 1580 1580 1581 1581 1582 1582 1582 1582 1582 1583 1583 1584 1585 1585 1586 1586 1587 1587 1588 1588 1589 1590 1591 1591 1592 1592 1592
1483 1484 1486 1488 1489 1491 1494 1497 1500 1501 1503 1506 1508 1511 1513 1515 1517 1520 1522 1525 1528 1530 1533 1536 1538 1540 1542 1544 1545 1546 1548 1549 1550 1552 1554 1557 1559 1561 1563 1564 1566 1567 1568 1569 1570 1571 1573 1574 1575 1575 1576 1577 1578 1578 1579 1579 1579 1579 1580 1580 1580 1581 1581 1582 1582 1582 1582 1582 1583 1584 1584 1585 1585 1586 1586 1587 1587 1588 1589 1590 1590 1591 1592 1592 1592
1481 1483 1486 1488 1489 1490 1491 1493 1495 1497 1499 1502 1505 1508 1510 1513 1515 1518 1520 1522 1525 1528 1531 1533 1535 1537 1539 1540 1542 1544 1545 1546 1548 1551 1553 1556 1558 1560 1562 1563 1564 1565 1566 1568 1569 1570 1571 1572 1573 1574 1575 1576 1577 1577 1578 1578 1578 1579 1579 1579 1580 1580 1581 1581 1581 1582 1582 1582 1583 1583 1584 1585 1585 1586 1586 1586 1587 1588 1588 1589 1590 1591 1591 1592 1592
1477 1480 1482 1484 1486 1488 1488 1488 1490 1492 1495 1499 1502 1504 1507 1510 1513 1515 1517 1520 1522 1525 1527 1530 1532 1534 1536 1538 1540 1541 1543 1545 1548 1550 1552 1554 1557 1558 1560 1561 1562 1564 1565 1566 1567 1568 1570 1571 1572 1573 1574 1575 1575 1576 1577 1577 1577 1578 1578 1578 1579 1579 1580 1581 1581 1581 1582 1582 1582 1583 1584 1584 1585 1585 1585 1586 1586 1587 1588 1589 1589 1590 1591 1591 1592
1472 1475 1477 1479 1481 1483 1484 1485 1486 1488 1491 1494 1497 1500 1503 1506 1509 1512 1514 1516 1519 1522 1524 1526 1529 1531 1533 1535 1537 1539 1541 1544 1546 1548 1550 1552 1554 1556 1558 1559 1561 1562 1563 1564 1566 1567 1568 1570 1571 1572 1573 1574 1574 1575 1576 1576 1576 1577 1577 1578 1578 1579 1579 1580 1580 1581 1581 1582 1582 1582 1583 1583 1584 1584 1585 1585 1586 1586 1587 1588 1588 1589 1590 1590 1591
1469 1472 1474 1476 1477 1478 1479 1481 1483 1485 1488 1491 1493 1496 1499 1502 1505 1507 1510 1512 1515 1517 1520 1522 1525 1528 1530 1532 1533 1536 1538 1541 1543 1545 1548 1550 1552 1554 1555 1557 1559 1560 1561 1563 1564 1565 1567 1568 1569 1570 1571 1572 1573 1573 1574 1575 1575 1576 1576 1577 1577 1578 1578 1579 1579 1580 1581 1581 1581 1582 1582 1583 1583 1583 1584 1584 1585 1585 1586 1586 1587 1588 1589 1589 1590
1465 1468 1470 1473 1475 1477 1479 1480 1482 1484 1487 1489 1491 1493 1496 1498 1501 1503 1506 1509 1511 1514 1517 1519 1522 1524 1526 1528 1530 1533 1535 1538 1540 1542 1544 1546 1548 1551 1553 1555 1556 1558 1560 1561 1562 1563 1565 1566 1567 1569 1570 1570 1571 1572 1573 1573 1574 1575 1575 1576 1576 1577 1578 1578 1578 1579 1579 1580 1580 1581 1582 1582 1582 1583 1583 1584 1584 1585 1585 1585 1586 1586 1587 1588 1588
1461 1465 1467 1470 1473 1475 1478 1480 1481 1483 1485 1487 1489 1491 1493 1495 1497 1500 1502 1505 1508 1511 1513 1516 1519 1521 1523 1526 1528 1530 1533 1535 1536 1538 1541 1543 1545 1548 1550 1552 1554 1556 1557 1558 1560 1561 1563 1564 1565 1567 1568 1568 1570 1571 1571 1572 1573 1573 1574 1574 1575 1576 1576 1577 1577 1578 1578 1579 1579 1580 1581 1581 1581 1582 1582 1583 1583 1584 1584 1584 1585 1585 1586 1586 1587
1457 1460 1462 1465 1467 1469 1473 1475 1477 1480 1482 1484 1486 1488 1490 1492 1494 1496 1498 1501 1504 1507 1510 1512 1515 1517 1520 1522 1524 1527 1530 1532 1534 1536 1538 1540 1543 1545 1547 1549 1551 1553 1555 1556 1557 1559 1561 1562 1563 1564 1566 1567 1568 1569 1570 1571 1571 1572 1572 1573 1574 1574 1575 1576 1576 1576 1577 1577 1578 1579 1580 1581 1581 1581 1581 1582 1582 1583 1583 1583 1583 1584 1584 1585 1585
1451 1453 1456 1458 1460 1463 1467 1470 1472 1475 1477 1479 1482 1484 1486 1488 1490 1492 1494 1497 1501 1503 1506 1509 1511 1514 1517 1519 1521 1524 1526 1528 1531 1533 1535 1538 1540 1542 1544 1546 1548 1550 1552 1554 1555 1557 1559 1560 1562 1563 1564 1565 1566 1567 1568 1569 1570 1570 1571 1572 1572 1573 1574 1574 1575 1575 1576 1576 1577 1578 1579 1580 1580 1580 1580 1581 1581 1582 1582 1582 1583 1583 1583 1584 1584
1445 1448 1451 1452 1454 1458 1461 1464 1467 1470 1472 1475 1477 1480 1482 1484 1486 1488 1491 1494 1496 1499 1502 1504 1507 1510 1513 1516 1519 1521 1523 1525 1528 1530 1532 1535 1537 1539 1541 1543 1546 1548 1550 1552 1554 1555 1557 1558 1560 1561 1562 1563 1564 1566 1567 1567 1568 1569 1569 1570 1571 1572 1572 1572 1573 1574 1574 1575 1576 1576 1577 1578 1579 1579 1580 1580 1580 1581 1582 1582 1582 1582 1583 1583 1583
1440 1443 1445 1447 1450 1454 1457 1460 1463 1465 1468 1470 1473 1475 1477 1479 1482 1484 1487 1490 1492 1495 1497 1500 1503 1507 1510 1512 1515 1518 1520 1522 1524 1527 1529 1531 1534 1536 1539 1541 1543 1546 1548 1550 1552 1553 1555 1556 1558 1559 1561 1562 1562 1564 1565 1565 1566 1567 1568 1568 1569 1570 1570 1571 1571 1572 1573 1574 1574 1575 1576 1577 1578 1578 1579 1579 1580 1580 1581 1581 1582 1582 1582 1582 1583
1433 1435 1437 1441 1445 1449 1452 1455 1458 1460 1463 1465 1467 1470 1472 1475 1478 1480 1483 1486 1489 1491 1494 1497 1500 1503 1506 1508 1511 1514 1517 1519 1521 1523 1525 1528 1531 1533 1536 1538 1541 1543 1545 1547 1549 1551 1553 1554 1556 1557 1559 1560 1561 1562 1563 1563 1564 1565 1566 1567 1567 1568 1568 1569 1570 1571 1572 1573 1573 1574 1574 1575 1576 1577 1577 1578 1579 1580 1580 1581 1581 1581 1582 1582 1582
1427 1429 1433 1436 1440 1443 1445 1449 1452 1454 1458 1459 1462 1465 1468 1471 1474 1477 1480 1482 1484 1487 1490 1493 1496 1499 1501 1504 1507 1510 1512 1515 1517 1520 1522 1525 1527 1530 1532 1535 1537 1540 1542 1544 1547 1548 1550 1552 1553 1555 1556 1557 1558 1559 1560 1561 1562 1563 1564 1565 1566 1566 1566 1567 1568 1569 1570 1571 1572 1572 1573 1574 1575 1575 1576 1577 1578 1579 1579 1580 1580 1581 1581 1582 1582
1424 1426 1430 1432 1434 1437 1439 1443 1446 1449 1453 1455 1458 1461 1464 1468 1471 1474 1476 1478 1481 1484 1486 1489 1492 1494 1497 1500 1503 1506 1509 1512 1514 1517 1519 1521 1524 1526 1529 1531 1534 1537 1539 1541 1543 1545 1548 1549 1551 1552 1553 1555 1556 1557 1558 1559 1560 1561 1562 1563 1564 1564 1564 1565 1567 1568 1569 1569 1570 1571 1572 1572 1573 1574 1574 1575 1576 1577 1578 1579 1579 1580 1580 1581 1581
1417 1419 1422 1424 1426 1429 1433 1437 1440 1444 1448 1450 1455 1458 1461 1464 1467 1470 1473 1476 1479 1481 1483 1485 1488 1490 1493 1496 1499 1502 1505 1508 1511 1513 1515 1517 1520 1523 1525 1528 1531 1533 1536 1538 1540 1542 1545 1546 1548 1549 1551 1552 1553 1554 1555 1556 1557 1558 1559 1560 1562 1562 1562 1563 1565 1565 1566 1567 1568 1569 1570 1571 1572 1572 1573 1573 1574 1575 1576 1577 1578 1579 1579 1580 1580
1410 1412 1414 1416 1419 1423 1427 1432 1435 1439 1443 1446 1451 1454 1457 1460 1462 1465 1469 1472 1474 1476 1478 1481 1484 1487 1489 1492 1495 1498 1502 1505 1507 1509 1511 1514 1517 1519 1522 1525 1527 1530 1532 1534 1537 1539 1541 1543 1545 1546 1548 1549 1550 1551 1553 1554 1555 1556 1557 1558 1559 1560 1560 1561 1562 1563 1564 1565 1566 1567 1568 1569 1570 1570 1571 1572 1572 1574 1575 1576 1576 1577 1578 1578 1579
1404 1406 1408 1411 1414 1418 1423 1427 1432 1436 1440 1443 1447 1450 1453 1455 1458 1460 1464 1467 1469 1471 1473 1476 1480 1483 1485 1488 1491 1494 1497 1500 1503 1505 1507 1510 1513 1516 1519 1521 1523 1526 1528 1531 1533 1536 1538 1540 1541 1543 1544 1546 1547 1548 1550 1551 1552 1553 1555 1556 1557 1558 1558 1559 1560 1561 1562 1563 1564 1565 1566 1567 1568 1568 1569 1570 1571 1572 1573 1573 1574 1575 1576 1577 1577
1402 1403 1405 1408 1410 1415 1419 1423 1428 1431 1435 1439 1442 1445 1447 1450 1453 1456 1459 1461 1463 1466 1470 1473 1476 1478 1481 1485 1488 1490 1493 1496 1498 1501 1503 1506 1509 1512 1515 1517 1520 1522 1525 1527 1529 1532 1534 1536 1538 1539 1540 1542 1543 1545 1547 1548 1549 1551 1552 1553 1554 1555 1556 1557 1557 1559 1560 1561 1562 1563 1564 1565 1566 1567 1567 1568 1569 1570 1571 1571 1572 1573 1574 1575 1575
1399 1401 1403 1406 1409 1414 1418 1420 1423 1426 1430 1434 1436 1439 1442 1445 1449 1452 1454 1456 1459 1463 1466 1469 1471 1474 1477 1481 1483 1486 1488 1491 1493 1496 1499 1502 1506 1509 1511 1514 1516 1518 1521 1523 1526 1528 1530 1532 1534 1535 1536 1538 1539 1541 1543 1545 1546 1548 1549 1551 1552 1553 1554 1555 1556 1557 1558 1559 1560 1561 1562 1563 1564 1565 1565 1566 1567 1568 1569 1569 1570 1571 1572 1572 1573
1396 1398 1401 1404 1407 1410 1413 1415 1418 1421 1424 1428 1431 1434 1437 1440 1444 1446 1448 1451 1455 1459 1462 1465 1467 1470 1473 1476 1478 1481 1483 1486 1489 1492 1495 1499 1502 1505 1507 1509 1512 1514 1517 1519 1522 1524 1526 1528 1529 1530 1532 1533 1535 1538 1539 1541 1543 1545 1547 1548 1549 1551 1552 1553 1554 1555 1556 1557 1558 1558 1560 1561 1562 1562 1563 1564 1565 1566 1567 1568 1568 1569 1570 1570 1571
1393 1394 1397 1399 1402 1405 1407 1410 1413 1416 1419 1423 1426 1429 1432 1436 1439 1441 1443 1447 1451 1455 1458 1461 1464 1466 1469 1471 1473 1476 1478 1481 1485 1488 1492 1495 1498 1500 1502 1505 1507 1510 1513 1515 1517 1520 1522 1523 1525 1526 1528 1529 1531 1534 1536 1538 1540 1542 1544 1545 1547 1548 1549 1550 1551 1552 1553 1554 1555 1556 1557 1558 1559 1560 1561 1562 1563 1564 1565 1566 1566 1567 1568 1569 1569
1389 1391 1393 1395 1398 1401 1402 1405 1408 1411 1415 1418 1421 1424 1427 1431 1433 1436 1439 1443 1447 1450 1453 1456 1459 1461 1464 1466 1468 1471 1474 1477 1481 1484 1488 1491 1493 1496 1498 1500 1503 1506 1508 1510 1512 1515 1517 1519 1521 1522 1524 1525 1527 1530 1532 1534 1536 1538 1540 1542 1543 1545 1546 1547 1548 1549 1550 1551 1552 1553 1554 1555 1556 1558 1559 1560 1561 1563 1563 1564 1565 1565 1566 1566 1567
1387 1389 1390 1392 1394 1396 1398 1401 1404 1407 1411 1414 1417 1420 1423 1426 1428 1432 1435 1439 1442 1446 1449 1451 1454 1456 1458 1460 1463 1467 1471 1474 1478 1481 1484 1486 1489 1491 1494 1497 1499 1501 1503 1505 1507 1510 1513 1515 1516 1518 1520 1522 1524 1525 1528 1530 1532 1534 1536 1538 1539 1541 1542 1544 1545 1546 1547 1548 1549 1550 1551 1553 1554 1556 1557 1559 1560 1561 1562 1562 1563 1563 1564 1564 1565
1384 1385 1386 1387 1389 1391 1393 1396 1398 1402 1406 1410 1413 1416 1419 1422 1425 1428 1431 1433 1437 1440 1443 1446 1448 1449 1451 1455 1459 1463 1467 1470 1474 1476 1479 1482 1485 1488 1490 1493 1494 1496 1498 1501 1503 1506 1508 1510 1511 1513 1516 1517 1519 1521 1523 1525 1528 1530 1532 1533 1535 1537 1539 1540 1541 1543 1544 1545 1546 1547 1549 1550 1552 1554 1556 1557 1558 1559 1559 1560 1561 1561 1562 1562 1563
1380 1381 1382 1383 1384 1386 1388 1391 1394 1398 1402 1405 1408 1411 1414 1417 1420 1423 1426 1429 1432 1435 1437 1440 1442 1442 1446 1451 1455 1459 1462 1465 1469 1472 1475 1478 1481 1484 1486 1488 1490 1492 1494 1496 1499 1501 1502 1504 1506 1508 1511 1512 1514 1516 1518 1521 1523 1525 1527 1529 1531 1533 1535 1536 1538 1539 1541 1542 1543 1545 1547 1548 1550 1552 1554 1555 1555 1556 1557 1558 1559 1559 1560 1560 1560
1378 1379 1380 1381 1382 1383 1386 1388 1390 1393 1396 1399 1403 1406 1409 1412 1415 1418 1421 1424 1428 1430 1433 1435 1436 1438 1443 1447 1450 1453 1457 1460 1463 1466 1470 1473 1476 1479 1482 1484 1486 1487 1489 1491 1494 1495 1496 1498 1501 1503 1505 1507 1509 1511 1513 1516 1518 1521 1523 1525 1527 1529 1531 1532 1534 1536 1537 1539 1541 1543 1545 1547 1548 1550 1552 1552 1553 1553 1554 1555 1556 1556 1557 1557 1557
1376 1376 1377 1378 1380 1381 1383 1385 1386 1388 1391 1394 1397 1400 1404 1407 1410 1413 1416 1420 1424 1426 1428 1429 1431 1435 1439 1442 1445 1448 1451 1454 1457 1461 1464 1467 1471 1474 1476 1478 1480 1482 1484 1486 1488 1489 1491 1493 1495 1498 1500 1502 1504 1506 1509 1511 1513 1516 1519 1521 1523 1525 1527 1528 1530 1532 1534 1536 1538 1541 1543 1545 1547 1548 1549 1549 1549 1550 1551 1552 1553 1554 1554 1554 1554
1374 1374 1374 1375 1376 1378 1380 1381 1382 1384 1386 1388 1391 1394 1398 1401 1404 1407 1411 1416 1419 1421 1424 1425 1428 1432 1434 1436 1440 1443 1445 1448 1451 1455 1459 1462 1465 1467 1470 1472 1475 1477 1479 1481 1482 1484 1486 1488 1490 1492 1495 1497 1499 1502 1504 1506 1509 1512 1515 1517 1519 1521 1523 1525 1526 1528 1530 1533 1535 1537 1539 1542 1542 1542 1543 1544 1544 1546 1547 1549 1550 1550 1551 1551 1551
1372 1372 1372 1372 1373 1374 1376 1378 1380 1382 1383 1385 1388 1391 1394 1397 1401 1404 1408 1411 1413 1416 1418 1421 1424 1427 1429 1432 1436 1438 1440 1443 1447 1451 1454 1457 1459 1461 1464 1467 1470 1472 1474 1474 1476 1479 1481 1483 1485 1487 1490 1492 1495 1497 1499 1502 1505 1508 1510 1513 1515 1517 1519 1521 1523 1524 1527 1529 1531 1532 1533 1534 1535 1535 1537 1538 1539 1541 1543 1545 1546 1547 1547 1548 1548
1369 1369 1369 1370 1370 1371 1373 1375 1377 1379 1382 1385 1388 1390 1393 1396 1399 1401 1404 1406 1408 1410 1412 1415 1418 1422 1425 1428 1431 1433 1436 1440 1443 1447 1449 1452 1454 1456 1459 1462 1464 1466 1468 1470 1472 1474 1476 1478 1480 1483 1486 1488 1490 1493 1495 1498 1501 1503 1507 1509 1511 1513 1515 1516 1518 1520 1522 1525 1526 1526 1527 1529 1530 1532 1533 1534 1535 1537 1539 1540 1542 1543 1544 1545 1545
1367 1367 1367 1367 1367 1368 1369 1371 1374 1377 1380 1383 1386 1389 1392 1393 1395 1397 1399 1402 1404 1406 1408 1411 1414 1417 1420 1423 1425 1428 1432 1436 1439 1443 1445 1447 1449 1451 1453 1457 1459 1461 1463 1465 1467 1469 1471 1473 1476 1479 1481 1483 1485 1488 1491 1494 1497 1500 1503 1505 1507 1509 1510 1512 1514 1516 1518 1519 1520 1521 1523 1525 1526 1528 1529 1530 1531 1532 1534 1536 1538 1539 1540 1541 1542
1366 1365 1364 1365 1365 1365 1366 1369 1371 1375 1377 1380 1384 1387 1390 1391 1392 1394 1396 1399 1401 1402 1404 1407 1410 1412 1415 1418 1421 1425 1429 1433 1436 1438 1440 1442 1444 1446 1449 1452 1454 1456 1458 1460 1462 1464 1467 1469 1471 1474 1476 1478 1480 1483 1486 1489 1492 1496 1499 1501 1503 1505 1506 1508 1510 1511 1512 1514 1515 1517 1518 1520 1522 1524 1526 1527 1527 1528 1530 1532 1534 1535 1537 1538 1539
1365 1364 1363 1363 1363 1363 1365 1367 1369 1372 1374 1377 1381 1384 1386 1388 1390 1392 1395 1397 1398 1398 1401 1404 1406 1409 1412 1415 1419 1422 1426 1429 1431 1432 1433 1436 1439 1442 1445 1447 1449 1451 1453 1455 1458 1460 1462 1464 1466 1468 1470 1473 1475 1478 1481 1485 1488 1492 1495 1497 1499 1500 1501 1503 1505 1507 1507 1509 1511 1513 1515 1516 1518 1520 1522 1523 1524 1525 1526 1528 1530 1532 1533 1535 1536
1365 1364 1363 1362 1362 1362 1364 1365 1367 1370 1372 1375 1378 1380 1383 1385 1387 1390 1392 1393 1394 1396 1398 1401 1403 1406 1409 1412 1415 1417 1420 1422 1424 1426 1429 1432 1435 1438 1441 1443 1445 1447 1449 1451 1454 1455 1457 1458 1461 1463 1466 1469 1471 1473 1476 1480 1484 1488 1491 1493 1495 1496 1497 1499 1501 1502 1503 1505 1507 1510 1512 1513 1515 1517 1519 1520 1521 1522 1523 1524 1527 1528 1530 1531 1533
1364 1363 1363 1362 1362 1361 1362 1364 1366 1368 1370 1372 1375 1377 1380 1382 1385 1387 1388 1389 1391 1393 1395 1398 1400 1403 1406 1408 1410 1412 1414 1416 1418 1421 1425 1429 1432 1435 1437 1439 1441 1442 1445 1447 1449 1450 1452 1454 1456 1459 1462 1465 1466 1468 1471 1476 1481 1484 1487 1489 1490 1491 1492 1495 1497 1498 1500 1502 1504 1506 1508 1509 1511 1514 1515 1516 1518 1519 1520 1521 1523 1525 1527 1528 1530
1364 1364 1364 1364 1362 1361 1362 1363 1364 1366 1368 1370 1373 1375 1377 1380 1382 1384 1384 1385 1388 1391 1394 1396 1398 1401 1403 1404 1406 1408 1410 1412 1415 1418 1421 1424 1427 1429 1431 1433 1436 1438 1441 1443 1444 1446 1448 1449 1452 1455 1457 1459 1461 1463 1467 1472 1476 1480 1482 1484 1485 1486 1489 1492 1493 1495 1497 1499 1501 1502 1504 1506 1508 1510 1511 1512 1515 1517 1518 1519 1520 1522 1524 1525 1527
1364 1364 1363 1363 1362 1362 1362 1363 1364 1365 1367 1369 1372 1374 1376 1378 1379 1380 1381 1383 1387 1390 1393 1395 1397 1399 1400 1401 1403 1405 1406 1408 1411 1414 1416 1417 1419 1422 1425 1428 1431 1433 1435 1437 1439 1441 1443 1445 1448 1450 1451 1454 1456 1459 1463 1468 1472 1474 1477 1479 1481 1483 1486 1488 1490 1491 1494 1496 1498 1499 1501 1503 1505 1507 1508 1510 1512 1514 1515 1517 1518 1520 1521 1523 1524
1362 1362 1362 1362 1362 1362 1363 1363 1364 1366 1367 1369 1371 1373 1375 1377 1377 1378 1381 1384 1387 1389 1391 1393 1395 1396 1398 1399 1399 1401 1403 1404 1405 1407 1409 1411 1413 1415 1418 1421 1424 1426 1428 1430 1432 1434 1437 1439 1442 1444 1446 1449 1451 1453 1458 1463 1466 1469 1472 1474 1477 1479 1482 1484 1486 1488 1491 1493 1495 1497 1499 1501 1503 1504 1505 1507 1509 1511 1513 1515 1516 1517 1519 1520 1522
1360 1360 1361 1362 1362 1362 1363 1364 1365 1367 1368 1369 1371 1373 1375 1376 1377 1379 1382 1384 1385 1387 1388 1390 1391 1393 1395 1396 1397 1399 1401 1401 1402 1403 1405 1407 1409 1411 1412 1414 1416 1418 1420 1422 1424 1427 1430 1432 1434 1437 1439 1442 1445 1449 1454 1458 1461 1463 1465 1467 1470 1473 1476 1479 1482 1485 1488 1490 1493 1496 1498 1499 1500 1501 1503 1505 1507 1509 1511 1513 1514 1515 1516 1518 1519
1359 1359 1360 1361 1362 1363 1364 1365 1366 1367 1368 1369 1371 1372 1373 1374 1376 1378 1379 1381 1382 1384 1385 1386 1388 1389 1391 1392 1393 1395 1396 1397 1398 1399 1400 1402 1404 1407 1409 1410 1411 1413 1415 1417 1418 1419 1420 1423 1426 1428 1431 1435 1440 1444 1449 1453 1456 1459 1461 1463 1464 1465 1469 1473 1477 1481 1485 1488 1490 1493 1495 1497 1498 1499 1500 1502 1505 1507 1508 1510 1511 1513 1514 1516 1517
1358 1358 1359 1360 1361 1363 1364 1365 1366 1367 1368 1369 1370 1371 1372 1373 1374 1375 1376 1377 1379 1380 1381 1383 1384 1385 1387 1388 1389 1390 1391 1392 1394 1395 1395 1397 1398 1401 1403 1405 1407 1409 1410 1413 1415 1415 1415 1416 1418 1419 1422 1428 1434 1439 1444 1448 1451 1454 1456 1459 1461 1461 1463 1467 1470 1475 1480 1484 1486 1489 1492 1494 1495 1497 1498 1500 1502 1504 1506 1508 1509 1511 1512 1514 1515
1357 1358 1359 1359 1360 1361 1362 1364 1365 1366 1367 1368 1369 1369 1370 1371 1372 1373 1374 1375 1376 1377 1378 1379 1380 1381 1383 1384 1385 1386 1386 1387 1388 1389 1391 1392 1393 1395 1397 1398 1400 1401 1403 1406 1409 1411 1412 1412 1412 1412 1415 1420 1427 1433 1438 1442 1445 1448 1450 1453 1456 1458 1461 1464 1466 1469 1473 1478 1482 1485 1489 1491 1493 1494 1496 1498 1500 1502 1504 1505 1507 1509 1511 1512 1513
1359 1359 1359 1360 1360 1360 1361 1362 1363 1364 1365 1366 1366 1367 1368 1369 1370 1371 1371 1372 1373 1374 1375 1376 1377 1378 1379 1380 1380 1380 1381 1382 1383 1384 1385 1385 1386 1387 1387 1388 1389 1390 1392 1395 1398 1402 1405 1405 1404 1405 1408 1412 1417 1423 1429 1434 1437 1440 1443 1446 1449 1453 1457 1460 1463 1465 1467 1472 1477 1482 1485 1488 1490 1491 1493 1495 1497 1499 1501 1503 1506 1508 1509 1510 1511
1361 1361 1361 1361 1362 1362 1362 1362 1363 1363 1363 1364 1365 1366 1366 1367 1368 1368 1369 1370 1371 1372 1372 1373 1374 1375 1376 1377 1377 1378 1378 1379 1379 1379 1379 1379 1379 1379 1378 1378 1379 1380 1381 1383 1387 1391 1395 1397 1399 1400 1401 1404 1409 1414 1421 1427 1433 1437 1440 1443 1446 1449 1453 1457 1460 1462 1464 1467 1472 1477 1481 1484 1486 1488 1490 1492 1494 1496 1499 1501 1503 1505 1507 1508 1509
1363 1363 1363 1363 1363 1363 1363 1363 1363 1363 1364 1364 1364 1365 1365 1365 1366 1366 1367 1367 1368 1368 1369 1370 1371 1372 1373 1373 1374 1375 1375 1376 1376 1376 1375 1375 1374 1375 1374 1374 1374 1375 1375 1375 1378 1382 1385 1388 1393 1395 1396 1400 1406 1412 1416 1422 1427 1433 1439 1443 1446 1448 1451 1455 1458 1460 1462 1465 1468 1473 1477 1480 1483 1485 1487 1489 1491 1494 1496 1499 1501 1503 1504 1506 1507
1364 1364 1364 1364 1364 1363 1363 1363 1363 1363 1363 1363 1364 1364 1364 1364 1365 1365 1365 1365 1364 1365 1365 1366 1367 1368 1368 1369 1370 1370 1371 1371 1372 1372 1371 1371 1371 1371 1371 1371 1371 1372 1372 1372 1374 1377 1380 1382 1384 1387 1391 1398 1406 1411 1415 1419 1422 1427 1433 1439 1444 1447 1450 1453 1456 1457 1459 1462 1465 1469 1473 1477 1479 1482 1484 1487 1489 1491 1494 1496 1498 1500 1502 1503 1505